SL-8 DEB *

Satellite information

Favourite Embed

Satellite Type and Status

DEBRISIN ORBIT

Key statistics

Satellite SL-8 DEB * at a glance.

Uptime

15682

Days in orbit

Revolutions

≈ 14.6

Per day

Orbit

LEO

Low Earth Orbit

Inclination

74.0

Latest

Satellite identification and parameters

Extended collection of information and parameters for SL-8 DEB *.

Object identification

Identified? True

Debris? True

Object name: SL-8 DEB *

International designator: 1982-051C

Object number (NORAD): 14398

Object ID (CCSDS): 14398

Country: COMMONWEALTH OF INDEPENDENT STATES (CIS)

Current information (Y/N): Y

RCS size: SMALL

Orbital parameters

Period: 98.635 minutes

Inclination: 74.0422 deg

SMA: 7071.567 km

Apoapsis: 695.882 km

Periapsis: 690.983 km

RAAN: 137.7235 deg

Eccentricy: 0.0003464

Argument of periapsis: 340.8468 deg

Mean anomaly: 170.4202 deg

Mean motion: 14.59920685 rev/day

Mean motion (dot): 0.00002496 rev/day2

B* drag term: 0.0005269 1/REarth

Two-line elements (TLE)

Creation date: May 8, 2025, 3:01 a.m.

Reference frame: TEME

Reference center: EARTH

Epoch: May 7, 2025, 11:26 a.m. UTC

TLE line 0: 0 SL-8 DEB *

TLE line 1: 1 14398U 82051C 25127.47697414 .00002496 00000-0 52690-3 0 9996

TLE line 2: 2 14398 74.0422 137.7235 0003464 340.8468 170.4202 14.59920685294228

Live tracking on map

Real-time ground track for satellite SL-8 DEB *.

In-orbit conjunctions

A list of the most updated potential collisions computed for object SL-8 DEB *.

Target Orbit TCA Probability of collision Miss distance Type
COSMOS 2251 DEB LEO 2024-11-12 16:43:58 0.0001543264 306.0 (m) DEBRIS
FENGYUN 1C DEB SSO 2024-09-25 14:58:52 0.006285188 108.0 (m) DEBRIS

Associated space launch

Military communications satellite

SL-8 DEB * was lifted into orbit during the mission ‘Kosmos-3M | Strela-2M 28’, on board a Kosmos-3M space rocket.

The launch took place on June 1, 1982, 4:37 a.m. from 132/1 (132L).

For more information about the launch, click the button.

Launch to space Kosmos-3M | Strela-2M 28
Kosmos-3M | Strela-2M 28

Agency: N/A

Status: Launch Successful

Launch date: June 1, 1982, 4:37 a.m. UTC

Rocket: Kosmos-3M

Launch pad: 132/1 (132L)

Location: Plesetsk Cosmodrome, Russian Federation

...

Latest news about this satellite

There are no fresh news available about this satellite. Check back as we update our databases every day.


Newsletter sign-up

Weekly statistics, charts and insights to help you stay on top of the space industry.